sat.trackr.live / text

‹ back to catalog

STARLINK-36614

NORAD 67622 · 2026-020F

PAYLOAD ACTIVE UNKNOWN

§ Identity

Operator
Country
US
Launch date
2026-01-30
Launch site
AFETR
Launch vehicle
Mass (kg)
RCS (m²)

Purposes: comms

External: N2YO · Heavens-Above · Gunter

§ Orbital elements

Epoch: 2026-05-25T04:45:22.809024Z

Period
94.27 min
Inclination
42.9997°
Eccentricity
0.0001155
Mean motion
15.27596757 rev/d
Perigee alt
482.2 km
Apogee alt
483.8 km
Semi-major
6,861.1 km
B*
1.6564e-3
RAAN
67.7855°
Arg perigee
269.2443°
Mean anomaly
90.8276°
Rev number
1,781

§ Raw data

STARLINK-366141 67622U 26020F   26145.19818066  .00045623  00000+0  16564-2 0  99932 67622  42.9997  67.7855 0001155 269.2443  90.8276 15.27596757 17818

JSON: /api/v1/satellites/67622 · /tle

For live sub-satellite position, see the globe view (requires WebGL).

§ Visibility from observer

Set your observer location to see the next 7 days of passes ≥ 10°. The values pass through the URL so the page stays shareable.

No JS? Fill the form by hand. The geolocation button needs JavaScript.